Tracking 29892 objects as of 21-Nov-2024
HD Live streaming from Space Station
objects crossing your sky now

DMSP 5D-2 F11 DEB

Track DMSP 5D-2 F11 DEB now!
10-day predictions


NORAD ID: 29073
Int'l Code: 1991-082BU
Perigee: 627.8 km
Apogee: 644.2 km
Inclination: 98.5 °
Period: 97.3 minutes
Semi major axis: 7007 km
RCS: 0.0107 m2 (small)
Launch date: November 28, 1991
Source: United States (US)
Launch site: AIR FORCE WESTERN TEST RANGE (AFWTR)

Note: This is SATELLITE DEBRIS
Your satellite tracking list
Your tracking list is empty




NASA's NSSDC Master Catalog

Two Line Element Set (TLE):
1 29073U 91082BU  24326.19376935  .00067246  00000-0  87727-2 0  9999
2 29073  98.5484  56.6608 0011735 242.5364 117.4653 14.80142790 53860
Source of the keplerian elements: AFSPC